Theta_e
323 322 322 322 323 323 323 323 324 324 325 325 325 326 327 329 328 325 326 327 331 333 332 332 332 332 333 330 328 326 324 325 323 322 321 321 321 320 320 320 320 321 321 320
323 321 323 322 323 322 322 322 324 326 325 324 325 327 327 329 327 327 328 329 331 333 334 333 333 332 330 328 325 324 324 324 323 322 322 320 320 319 318 318 318 318 317 319
323 325 322 321 321 321 322 324 325 325 326 325 324 325 326 330 329 329 330 331 332 333 334 334 332 330 327 325 323 323 324 324 323 323 320 320 319 318 317 316 316 316 316 316
324 323 321 322 323 323 325 324 323 323 325 325 327 329 327 331 331 330 331 332 333 333 333 333 331 328 324 322 321 322 323 323 322 321 320 320 319 318 317 316 315 316 315 314
326 323 322 323 324 323 324 324 324 324 325 326 326 328 327 331 331 331 331 332 332 332 333 331 328 324 322 321 321 322 322 321 320 318 318 317 317 316 316 315 316 316 314 316
325 324 323 324 324 323 323 323 324 326 327 329 327 327 326 330 329 330 331 331 331 331 329 327 324 322 322 321 321 321 320 319 318 317 316 316 315 316 315 315 315 314 313 312
327 326 324 323 323 324 324 326 329 330 331 333 328 326 325 327 327 325 329 330 330 328 327 326 323 322 322 321 321 320 319 318 317 316 315 315 314 314 314 313 312 312 313 312
326 328 326 325 325 326 328 327 327 329 329 328 326 327 329 326 325 325 327 327 328 327 326 324 322 321 321 321 320 319 318 317 316 315 314 313 312 312 312 311 312 311 311 310
328 328 326 324 324 324 326 328 328 329 326 328 327 326 327 325 325 325 325 326 327 326 324 323 322 322 321 320 320 318 317 316 315 314 313 312 311 311 311 311 310 310 310 309
326 329 327 325 324 324 325 326 327 328 332 331 326 325 329 327 326 325 324 324 323 323 324 323 321 321 320 318 318 318 317 316 314 313 311 311 311 310 311 310 309 309 309 308
327 329 328 327 327 326 327 327 327 327 326 327 326 326 325 325 324 323 322 322 323 322 322 321 319 318 318 317 316 316 316 315 313 312 311 311 310 310 310 309 307 310 307 308
330 332 332 329 325 324 325 326 327 328 328 328 329 330 324 323 322 322 321 321 321 320 320 319 318 317 317 316 316 316 315 314 312 310 309 309 310 310 309 307 309 308 307 307
331 330 332 330 329 326 325 325 324 324 325 325 326 325 322 321 322 321 321 321 320 319 318 318 317 317 315 315 314 314 314 312 310 309 309 310 309 307 307 308 307 306 306 305
325 330 331 331 328 327 327 325 323 324 328 326 325 324 321 322 322 321 320 319 318 318 317 317 317 315 315 314 314 314 312 309 308 308 308 309 308 307 306 306 306 304 304 303
327 330 328 328 326 324 324 323 323 323 323 326 324 322 321 324 322 320 319 318 317 316 317 316 315 314 312 312 312 310 309 307 307 307 306 306 306 304 307 307 307 306 305 305
328 330 327 328 325 324 323 319 319 320 321 322 320 322 324 321 320 319 317 317 318 317 316 314 313 311 310 308 308 307 306 307 306 306 306 304 305 306 307 307 306 307 308 308
328 330 329 329 326 322 322 324 322 321 320 321 323 323 321 320 318 317 317 319 318 317 314 312 311 307 304 303 305 305 306 305 305 304 304 305 306 307 307 307 307 308 308 308
327 328 327 333 327 331 325 321 321 320 320 321 321 321 320 317 317 316 318 317 315 313 312 310 307 305 303 302 303 304 303 304 303 305 306 307 307 307 307 308 308 309 308 308
324 326 329 330 330 326 323 324 322 321 321 322 321 320 317 317 316 318 317 315 313 311 308 306 305 304 304 302 302 303 303 303 305 307 307 307 307 308 308 308 308 309 309 308
323 325 329 325 328 328 329 323 320 320 323 320 319 317 317 317 320 319 316 314 311 308 305 304 303 303 303 302 302 303 303 306 307 307 307 307 307 307 308 308 308 309 309 309
326 326 326 326 328 324 324 322 320 323 326 320 316 316 318 319 318 316 314 312 308 306 304 303 302 303 304 303 302 305 306 306 306 307 307 307 307 306 307 308 309 309 308 309
324 326 325 324 325 327 322 320 322 322 319 316 317 317 317 317 316 314 312 310 306 305 304 303 303 303 303 304 306 306 306 307 307 307 307 306 306 306 306 308 308 308 308 307
322 327 331 326 329 325 320 319 318 316 316 317 317 317 316 315 314 312 310 308 306 303 303 303 303 304 306 305 306 306 306 306 306 305 306 305 305 307 307 307 307 306 306 306
322 320 319 320 318 316 315 314 315 316 317 317 316 315 314 313 311 309 307 306 304 303 303 303 303 305 306 305 304 304 305 305 306 305 305 305 305 306 306 306 306 304 304 304
319 317 315 316 314 316 316 318 317 316 316 315 314 312 311 309 308 306 306 304 303 303 303 303 306 305 304 304 304 304 305 305 305 306 305 304 305 306 307 304 303 304 301 301
315 314 315 319 318 317 318 317 316 315 314 312 310 310 306 305 306 304 304 303 303 304 303 305 304 304 305 305 305 306 306 305 306 305 304 303 304 305 306 304 304 302 301 301
Wind_Speed
12 11 14 17 15 16 10 11 8 7 6 9 8 9 1 4 9 11 10 12 14 11 13 13 10 8 7 5 4 5 7 10 13 15 17 18 20 20 22 23 22 21 22 25
7 14 5 9 12 7 12 11 11 7 2 7 12 13 8 8 8 7 8 10 12 14 12 13 10 7 3 3 4 5 8 11 13 14 16 16 19 22 25 24 23 23 29 23
14 11 6 6 7 11 11 11 4 6 7 11 16 16 17 10 8 7 7 9 11 13 12 12 11 7 3 2 3 5 8 11 13 15 17 19 21 24 26 27 30 28 27 30
7 7 6 9 9 5 13 8 6 8 11 11 4 13 5 14 12 9 10 10 11 12 14 10 10 6 2 1 2 5 8 11 12 15 17 19 23 25 27 31 30 29 29 32
5 4 7 8 4 3 10 6 8 12 13 16 19 10 12 12 10 10 9 10 11 11 7 8 8 3 2 3 5 6 8 10 13 16 18 22 25 28 30 31 30 29 34 23
6 4 6 9 5 5 10 10 14 15 16 15 20 15 8 11 6 11 10 10 10 8 8 5 3 2 7 8 7 8 10 11 16 18 21 23 25 27 29 30 30 30 30 29
7 11 4 7 12 9 10 13 12 12 12 9 6 5 6 7 6 9 10 11 10 7 7 7 9 12 7 9 8 11 13 16 18 21 24 26 26 27 28 26 30 28 28 28
11 5 6 4 9 12 7 8 9 15 11 13 5 8 6 11 8 8 9 6 11 9 7 8 8 8 12 13 9 14 15 16 20 24 27 28 27 28 25 27 26 25 24 28
13 3 6 1 5 6 3 9 7 10 15 14 14 4 11 10 8 5 5 7 5 4 6 8 9 12 11 11 13 14 16 18 21 26 28 28 27 25 24 23 21 21 22 26
11 10 8 10 4 10 11 9 9 8 11 13 11 14 11 8 7 6 4 4 3 6 7 8 11 11 12 9 16 17 16 16 21 28 29 31 26 25 23 19 21 22 21 22
12 9 7 4 11 10 5 9 5 2 7 11 11 2 8 7 8 8 9 9 10 8 12 12 14 14 17 22 20 20 14 18 24 27 32 29 28 24 17 19 22 19 20 18
7 7 11 3 1 5 8 13 11 9 10 10 8 11 10 6 8 8 10 9 7 9 12 14 18 21 22 23 23 22 19 21 22 29 30 28 21 16 18 23 18 17 17 16
9 6 8 14 5 0 8 3 5 5 7 11 10 6 5 4 7 6 7 9 11 12 15 15 18 20 24 25 22 21 18 20 26 27 24 17 14 17 18 18 15 15 14 13
1 8 14 11 15 1 9 9 7 7 7 12 11 13 4 8 9 11 12 13 15 17 18 17 17 21 22 20 16 17 18 21 21 22 18 19 16 15 14 13 14 12 10 12
4 10 13 16 12 9 15 14 13 13 12 12 13 12 13 11 11 10 12 17 19 19 17 19 20 26 30 29 27 22 18 18 17 17 16 15 13 12 11 11 9 9 9 11
2 9 10 13 15 16 12 14 13 11 10 11 10 9 9 8 8 13 16 19 16 18 21 21 21 27 28 25 23 18 16 13 14 14 12 12 11 10 13 10 11 12 11 11
5 8 9 13 10 9 12 8 6 2 2 5 9 11 11 13 16 17 17 15 18 19 20 20 22 26 24 24 22 19 13 11 10 11 10 9 9 14 12 11 11 10 9 6
10 5 9 8 11 8 3 5 6 6 6 4 4 10 11 15 15 15 13 14 16 18 19 19 21 23 20 19 19 18 14 7 8 6 7 9 12 11 10 10 10 9 9 9
8 10 3 2 6 13 10 3 4 7 10 9 8 10 15 15 14 6 14 16 17 17 21 19 21 22 19 13 17 14 6 4 4 6 9 10 10 12 9 7 9 10 8 9
5 9 5 8 7 7 7 4 5 5 3 8 10 14 15 15 11 12 19 17 19 20 18 19 19 18 15 14 12 4 2 4 9 10 9 10 10 11 12 12 11 10 10 11
6 6 10 8 6 2 7 5 3 5 5 11 14 14 15 10 10 14 16 17 17 14 16 16 15 16 11 6 2 1 3 6 9 7 9 10 10 7 12 14 9 10 12 13
5 3 3 5 9 6 5 2 5 8 11 13 12 13 12 14 15 16 17 14 14 14 15 13 12 8 4 2 3 7 8 10 7 6 9 11 15 17 12 12 11 13 15 16
3 5 3 4 3 3 8 6 6 6 9 11 13 12 13 14 15 16 12 11 11 12 12 10 6 2 6 7 7 7 11 9 9 9 9 12 14 14 13 13 15 14 15 16
3 2 4 3 4 4 4 6 7 9 8 11 11 12 14 14 15 13 11 8 10 11 8 5 2 4 4 6 8 8 10 10 10 8 8 9 8 11 14 14 14 18 19 18
5 1 3 5 5 6 5 8 8 10 9 11 13 14 13 14 13 10 8 8 8 7 3 3 3 6 7 5 7 8 10 10 11 12 13 16 14 10 9 15 16 16 16 16
3 2 2 2 8 5 8 8 9 11 12 12 13 14 16 11 10 13 10 8 4 3 3 1 2 2 4 4 8 8 9 12 16 14 13 12 16 10 11 7 6 16 15 16
Wind_Direction
191 234 229 245 232 271 322 291 270 165 87 280 252 283 163 252 249 251 225 211 197 185 173 172 167 177 147 102 75 46 40 23 14 4 352 343 338 333 328 322 317 316 315 314
235 231 15 346 311 286 258 257 252 86 179 254 260 240 194 230 248 262 225 220 183 188 165 184 178 185 159 113 46 44 26 15 7 355 345 337 330 324 320 315 320 322 315 314
274 36 68 261 228 245 238 265 269 271 160 250 261 257 234 193 226 213 215 206 195 183 194 180 190 194 195 87 32 22 9 3 357 351 338 334 326 321 318 320 315 309 319 313
304 52 250 241 250 276 291 189 309 285 258 272 162 281 221 175 203 200 197 197 189 193 199 180 191 203 176 334 347 356 356 353 348 341 332 327 314 313 318 307 309 311 309 305
69 192 236 258 311 39 304 329 292 287 277 278 267 239 288 151 200 185 188 196 198 191 180 190 205 166 222 264 317 314 339 337 334 332 328 321 316 314 310 310 307 312 300 307
11 335 294 321 359 305 316 281 264 251 252 251 251 248 233 178 218 179 181 201 195 183 199 207 196 241 259 267 291 317 322 332 331 329 324 322 318 316 313 310 309 307 316 309
171 197 149 264 259 203 244 262 266 274 232 272 344 258 294 48 116 328 165 193 183 202 214 221 224 236 247 283 297 315 322 325 330 328 326 325 320 316 304 324 314 312 312 304
285 208 183 125 286 317 298 343 294 305 314 315 169 250 103 58 58 33 12 229 186 182 253 238 288 302 298 307 326 310 321 328 324 327 327 324 320 316 321 317 317 318 320 322
301 303 104 39 283 277 296 253 8 306 279 264 265 138 123 97 81 74 39 354 2 310 255 285 295 291 303 312 299 308 312 311 323 328 325 323 321 327 316 321 323 321 323 322
285 294 197 133 250 241 266 344 300 264 290 286 305 324 57 84 62 120 209 226 296 313 306 279 269 299 317 315 295 298 303 312 334 325 324 323 328 317 318 325 323 320 320 324
290 269 266 191 220 273 213 248 239 294 284 297 297 45 57 57 28 354 332 9 344 333 325 320 348 330 312 312 317 296 316 329 325 327 329 326 319 313 327 324 323 317 325 323
39 304 288 176 262 296 279 287 302 285 284 276 312 276 78 51 17 3 336 346 340 321 310 319 313 307 305 336 350 330 327 335 340 326 324 317 323 334 329 324 320 324 322 322
10 259 275 279 164 329 280 247 292 306 292 271 283 281 138 85 18 355 318 314 327 323 315 318 323 338 339 329 333 318 333 331 330 326 319 330 345 336 325 325 323 326 326 329
288 272 279 278 303 272 271 257 236 275 284 283 281 320 264 19 26 352 343 327 321 330 324 338 338 332 337 349 340 315 326 340 337 325 331 328 333 325 322 325 325 320 317 317
273 265 271 277 295 300 286 284 278 267 260 266 289 307 327 22 347 325 329 332 328 316 347 341 338 333 324 335 335 341 334 339 333 322 332 329 319 314 320 326 335 336 325 316
208 276 274 279 276 266 283 285 281 273 279 287 283 290 23 330 336 329 334 330 342 343 344 338 334 326 334 329 326 331 334 335 327 317 326 320 316 321 319 324 324 317 312 319
267 283 276 281 307 301 277 308 290 323 290 282 297 353 340 352 347 333 338 358 352 341 340 339 341 338 334 331 333 331 346 340 327 322 319 317 312 311 318 315 315 323 332 354
275 264 283 291 298 286 107 71 17 320 289 291 317 347 355 345 334 337 25 360 345 342 348 348 340 336 336 333 335 343 330 344 318 310 309 320 325 327 338 348 349 351 349 354
240 263 265 240 271 256 178 84 41 16 329 41 2 343 337 330 323 117 22 358 349 2 354 344 338 338 333 343 336 332 353 313 301 321 329 349 347 352 13 7 359 2 355 5
215 244 200 262 262 305 156 99 6 334 245 25 349 334 327 332 338 341 340 348 10 358 351 342 339 333 336 335 342 1 258 321 338 348 353 359 355 10 357 349 2 6 11 9
180 218 227 233 247 278 61 31 345 271 25 339 339 324 1 349 344 322 344 357 6 0 344 341 339 338 343 349 24 253 320 342 339 339 10 12 350 11 12 13 6 20 19 18
291 252 240 264 240 237 22 251 359 6 336 330 322 1 346 333 329 338 343 9 358 0 344 346 341 354 28 81 351 356 1 1 2 23 23 15 13 10 8 10 17 23 20 22
255 2 312 342 32 41 30 7 359 344 322 338 346 347 336 330 335 339 2 3 7 350 345 345 359 355 346 15 20 4 28 15 14 37 33 25 22 16 5 34 22 34 26 18
153 28 268 347 70 1 330 338 8 341 357 340 337 343 340 332 343 354 345 12 356 341 343 360 279 308 21 28 30 26 21 13 15 17 18 9 358 24 27 40 39 35 22 10
30 52 339 296 271 327 98 36 6 334 343 345 347 342 343 4 344 333 357 5 337 340 14 224 327 5 36 9 23 22 4 356 359 356 8 352 346 64 52 55 41 44 39 38
131 306 229 21 37 326 21 24 8 345 353 350 346 354 359 356 345 355 331 330 335 47 193 231 335 354 320 10 22 12 357 7 12 6 6 2 358 14 66 70 77 61 54 46